When you browse on this site, cookies collect data to enhance your experience and personalize the content and advertising you see.
Visit our Privacy Policy to learn more. By continuing to use the site, you agree to this use of cookies and data.
  • In Hungary
  • List of Countries
  • For 7 days
  • Water Temperature
  • Weather Map
  • News
  • Weather Widgets
  • user-avatar
    Login

    Hourly Weather Szkocja

    Today, 7 December, Saturday

    Time Temperature Precipitation Wind Pressure Humidity
    00:00 -2°C° 0.1 mm 6 mps 740 mmHg 68%
    01:00 -2°C° 0.1 mm 6 mps 740 mmHg 68%
    02:00 -2°C° 0.1 mm 6 mps 739 mmHg 69%
    03:00 -2°C° 0.1 mm 6 mps 739 mmHg 67%
    04:00 -2°C° 0.1 mm 6 mps 738 mmHg 66%
    05:00 -2°C° 0.1 mm 6 mps 737 mmHg 64%
    06:00 -2°C° 0.1 mm 6 mps 737 mmHg 65%
    07:00 -2°C° 0.1 mm 6 mps 737 mmHg 67%
    08:00 -2°C° 0.1 mm 6 mps 737 mmHg 68%
    09:00 -2°C° 0 mm 6 mps 736 mmHg 69%
    10:00 -1°C° 0 mm 7 mps 736 mmHg 70%
    11:00 -1°C° 0 mm 7 mps 736 mmHg 71%
    12:00 -1°C° 0.3 mm 7 mps 735 mmHg 78%
    13:00 0°C° 0.3 mm 7 mps 735 mmHg 84%
    14:00 0°C° 0.3 mm 7 mps 734 mmHg 90%
    15:00 +2°C° 0.1 mm 7 mps 734 mmHg 90%
    16:00 +2°C° 0.1 mm 7 mps 734 mmHg 90%
    17:00 +3°C° 0.1 mm 7 mps 733 mmHg 90%
    18:00 +3°C° 0.3 mm 7 mps 734 mmHg 87%
    19:00 +3°C° 0.3 mm 7 mps 734 mmHg 84%
    20:00 +4°C° 0.3 mm 7 mps 735 mmHg 82%
    21:00 +3°C° 0 mm 7 mps 735 mmHg 80%
    22:00 +3°C° 0 mm 7 mps 735 mmHg 78%
    23:00 +3°C° 0 mm 7 mps 735 mmHg 77%

    Tomorrow, 8 December, Sunday

    Time Temperature Precipitation Wind Pressure Humidity
    00:00 +2°C° 0 mm 7 mps 736 mmHg 77%
    01:00 +2°C° 0 mm 7 mps 736 mmHg 77%
    02:00 +1°C° 0 mm 6 mps 737 mmHg 77%
    03:00 +1°C° 0 mm 6 mps 737 mmHg 79%
    04:00 -1°C° 0 mm 6 mps 737 mmHg 81%
    05:00 -1°C° 0 mm 6 mps 738 mmHg 83%
    06:00 0°C° 0 mm 5 mps 738 mmHg 85%
    07:00 0°C° 0 mm 5 mps 738 mmHg 87%
    08:00 0°C° 0 mm 5 mps 739 mmHg 89%
    09:00 +1°C° 0 mm 5 mps 739 mmHg 89%
    10:00 +1°C° 0 mm 5 mps 738 mmHg 88%
    11:00 +1°C° 0 mm 5 mps 738 mmHg 88%
    12:00 +2°C° 0 mm 5 mps 738 mmHg 88%
    13:00 +3°C° 0 mm 6 mps 738 mmHg 88%
    14:00 +3°C° 0 mm 6 mps 738 mmHg 89%
    15:00 +3°C° 0 mm 6 mps 737 mmHg 86%
    16:00 +3°C° 0 mm 7 mps 736 mmHg 84%
    17:00 +3°C° 0 mm 7 mps 736 mmHg 82%
    18:00 +3°C° 0 mm 7 mps 736 mmHg 80%
    19:00 +3°C° 0 mm 7 mps 735 mmHg 79%
    20:00 +4°C° 0 mm 8 mps 735 mmHg 77%
    21:00 +4°C° 0 mm 8 mps 734 mmHg 78%
    22:00 +4°C° 0 mm 8 mps 734 mmHg 79%
    23:00 +4°C° 0 mm 8 mps 733 mmHg 80%

    Day after tomorrow, 9 December, Monday

    Time Temperature Precipitation Wind Pressure Humidity
    00:00 +4°C° 0.4 mm 7 mps 733 mmHg 83%
    01:00 +4°C° 0.4 mm 7 mps 733 mmHg 86%
    02:00 +4°C° 0.4 mm 7 mps 733 mmHg 89%
    03:00 +5°C° 0 mm 7 mps 732 mmHg 89%
    04:00 +5°C° 0 mm 7 mps 732 mmHg 88%
    05:00 +5°C° 0 mm 7 mps 732 mmHg 88%
    06:00 +5°C° 0 mm 7 mps 732 mmHg 88%
    07:00 +5°C° 0 mm 6 mps 733 mmHg 87%
    08:00 +5°C° 0 mm 6 mps 733 mmHg 87%
    09:00 +5°C° 0 mm 6 mps 733 mmHg 86%
    10:00 +5°C° 0 mm 6 mps 733 mmHg 86%
    11:00 +6°C° 0 mm 5 mps 733 mmHg 86%
    12:00 +6°C° 0 mm 5 mps 733 mmHg 83%
    13:00 +6°C° 0 mm 5 mps 733 mmHg 80%
    14:00 +6°C° 0 mm 4 mps 733 mmHg 77%
    15:00 +5°C° 0 mm 4 mps 733 mmHg 80%
    16:00 +5°C° 0 mm 3 mps 734 mmHg 83%
    17:00 +4°C° 0 mm 3 mps 734 mmHg 86%
    18:00 +3°C° 0 mm 3 mps 734 mmHg 88%
    19:00 +3°C° 0 mm 3 mps 734 mmHg 90%
    20:00 +3°C° 0 mm 2 mps 735 mmHg 92%
    21:00 +3°C° 0 mm 2 mps 735 mmHg 93%
    22:00 +3°C° 0 mm 2 mps 735 mmHg 93%
    23:00 +2°C° 0 mm 2 mps 735 mmHg 94%

    10 December, Tuesday

    Time Temperature Precipitation Wind Pressure Humidity
    00:00 +2°C° 0 mm 2 mps 735 mmHg 93%
    01:00 +2°C° 0 mm 2 mps 736 mmHg 93%
    02:00 +2°C° 0 mm 2 mps 736 mmHg 93%
    03:00 +2°C° 0 mm 2 mps 736 mmHg 93%
    04:00 +2°C° 0 mm 2 mps 736 mmHg 93%
    05:00 +2°C° 0 mm 2 mps 736 mmHg 93%
    06:00 +2°C° 0 mm 2 mps 736 mmHg 94%
    07:00 +2°C° 0 mm 2 mps 736 mmHg 94%
    08:00 +1°C° 0 mm 2 mps 737 mmHg 94%
    09:00 +1°C° 0 mm 3 mps 737 mmHg 93%
    10:00 +1°C° 0 mm 3 mps 737 mmHg 91%
    11:00 +2°C° 0 mm 3 mps 738 mmHg 90%
    12:00 +2°C° 0 mm 3 mps 738 mmHg 91%
    13:00 +2°C° 0 mm 3 mps 738 mmHg 92%
    14:00 +2°C° 0 mm 3 mps 738 mmHg 93%
    15:00 +2°C° 0 mm 3 mps 739 mmHg 93%
    16:00 +2°C° 0 mm 3 mps 739 mmHg 93%
    17:00 +2°C° 0 mm 3 mps 740 mmHg 92%
    18:00 +2°C° 0 mm 3 mps 740 mmHg 92%
    19:00 +2°C° 0 mm 3 mps 741 mmHg 92%
    20:00 +1°C° 0 mm 4 mps 742 mmHg 92%
    21:00 +1°C° 0.1 mm 5 mps 743 mmHg 91%
    22:00 -1°C° 0.1 mm 6 mps 744 mmHg 90%
    23:00 -2°C° 0.1 mm 7 mps 744 mmHg 89%

    11 December, Wednesday

    Time Temperature Precipitation Wind Pressure Humidity
    00:00 -2°C° 0 mm 6 mps 745 mmHg 85%
    01:00 -2°C° 0 mm 4 mps 746 mmHg 81%
    02:00 -2°C° 0 mm 3 mps 747 mmHg 77%
    03:00 -2°C° 0 mm 3 mps 747 mmHg 76%
    04:00 -2°C° 0 mm 3 mps 748 mmHg 75%
    05:00 -2°C° 0 mm 3 mps 749 mmHg 74%
    06:00 -2°C° 0 mm 2 mps 749 mmHg 74%
    07:00 -2°C° 0 mm 2 mps 749 mmHg 74%
    08:00 -2°C° 0 mm 2 mps 750 mmHg 74%
    09:00 -1°C° 0 mm 2 mps 750 mmHg 71%
    10:00 -1°C° 0 mm 2 mps 750 mmHg 68%
    11:00 +1°C° 0 mm 2 mps 751 mmHg 65%
    12:00 +1°C° 0 mm 2 mps 751 mmHg 63%
    13:00 +2°C° 0 mm 2 mps 750 mmHg 61%
    14:00 +3°C° 0 mm 1 mps 750 mmHg 60%
    15:00 +2°C° 0 mm 1 mps 750 mmHg 64%
    16:00 +1°C° 0 mm 1 mps 750 mmHg 67%
    17:00 0°C° 0 mm 1 mps 750 mmHg 71%
    18:00 0°C° 0 mm 1 mps 750 mmHg 71%
    19:00 0°C° 0 mm 1 mps 750 mmHg 71%
    20:00 -2°C° 0 mm 2 mps 750 mmHg 71%
    21:00 -2°C° 0 mm 2 mps 750 mmHg 71%
    22:00 -2°C° 0 mm 2 mps 750 mmHg 71%
    23:00 -2°C° 0 mm 3 mps 750 mmHg 71%

    12 December, Thursday

    Time Temperature Precipitation Wind Pressure Humidity
    00:00 -2°C° 0 mm 3 mps 749 mmHg 71%
    01:00 -2°C° 0 mm 3 mps 749 mmHg 71%
    02:00 -2°C° 0 mm 3 mps 749 mmHg 71%
    03:00 -4°C° 0 mm 3 mps 748 mmHg 70%
    04:00 -4°C° 0 mm 3 mps 748 mmHg 68%
    05:00 -4°C° 0 mm 3 mps 748 mmHg 67%
    06:00 -4°C° 0 mm 3 mps 748 mmHg 66%
    07:00 -4°C° 0 mm 3 mps 747 mmHg 65%
    08:00 -4°C° 0 mm 3 mps 747 mmHg 64%
    09:00 -3°C° 0 mm 4 mps 747 mmHg 61%
    10:00 -3°C° 0 mm 4 mps 747 mmHg 57%
    11:00 -4°C° 0 mm 5 mps 747 mmHg 54%
    12:00 -2°C° 0 mm 4 mps 747 mmHg 53%
    13:00 -2°C° 0 mm 4 mps 746 mmHg 51%
    14:00 -2°C° 0 mm 4 mps 746 mmHg 50%
    15:00 -2°C° 0 mm 4 mps 746 mmHg 52%
    16:00 -3°C° 0 mm 4 mps 745 mmHg 55%
    17:00 -3°C° 0 mm 4 mps 745 mmHg 57%
    18:00 -4°C° 0 mm 4 mps 745 mmHg 59%
    19:00 -4°C° 0 mm 4 mps 744 mmHg 60%
    20:00 -4°C° 0 mm 4 mps 744 mmHg 61%
    21:00 -4°C° 0 mm 4 mps 744 mmHg 62%
    22:00 -4°C° 0 mm 4 mps 744 mmHg 64%
    23:00 -4°C° 0 mm 4 mps 743 mmHg 65%
    Show more